www.pogodaiklimat.ru

Погода и климат >> Архив погоды >> Россия >> Якутия >> Иэма


ПОГОДА в Иэме

  • Прогноз погоды в Иэме
  • Монитор погоды в Иэме

АРХИВ ПОГОДЫ в Иэме

Время (UTC), дата Ветер
(напр.,м/с)
 
Видим.   Явления Облачность Т
(С)
Тd
(С)
f
(%)
Тe
(С)
Тes
(С)
Комфортность P
(гПа)
Po
(гПа)
Тmin
(С)
Tmax
(С)
R
(мм)
R24
(мм)
S
(см)
12 9.06 штиль 0 50 км 9/0
[Ci]
+17.0 +0.5 33 +17 +17 1007.7 931.4
15 9.06 штиль 0 50 км 4/0
[Cs]
+9.9 -2.1 43 +10 +10 1010.4 932.0
18 9.06 штиль 0 50 км 4/0
[Cs]
+8.7 -2.5 45 +9 +9 1011.3 932.5
21 9.06 штиль 0 50 км 3/0
[Ci fib]
+10.8 -0.7 45 +11 +14 1011.3 933.1 +2.7
00 10.06 Ю 2 50 км 3/0
[Ci fib]
+17.2 +3.1 39 +18 +26 1008.8 932.5
03 10.06 ЮЗ 3 50 км 6/3
[Cu med, cong Cs]
+19.8 +2.4 31 +20 +27 1006.7 931.2
06 10.06 ЮЗ 2 50 км 6/4 1000 м
[Cu med, cong Cs]
+21.2 +1.1 26 +21 +26 комфорт 1005.0 930.0
09 10.06 З 1 50 км 8/6 600 м
[Cb cap Cs]
+19.2 +2.6 33 +21 +22 комфорт 1005.2 929.6 +22.4
12 10.06 ЮЗ 5 50 км {ливн. осадки} 6/3 600 м
[Cb cap Ci ing]
+8.9 +3.1 67 +6 +6 1008.7 930.3
15 10.06 СВ 2 50 км 8/6 600 м
[Sc diur, vesp Cs]
+9.0 +2.0 61 +8 +8 1009.3 930.9
18 10.06 СВ 1 50 км 4/3 600 м
[Sc diur, vesp Ac trans]
+2.8 +1.5 91 +1 +1 1012.5 932.1
21 10.06 Ю 1 50 км 3/0
[Ac lent]
+10.2 +4.4 67 +10 +13 1010.8 932.5 +2.0 4
00 11.06 Ю 1 50 км 6/3 600 м
[Cu med, cong Ac trans Cs]
+16.3 +5.2 48 +17 +23 1008.3 931.8
03 11.06 Ю 2 50 км {ливн. осадки} 6/4 600 м
[Cb cap Ci ing]
+19.5 +4.1 36 +21 +27 комфорт 1005.7 930.2
06 11.06 Ю 2 50 км {ливн. осадки} 8/6 600 м
[Cb cap Ci ing]
+18.8 +4.7 39 +20 +23 1004.2 928.7
09 11.06 Ю 5 50 км 8/4 600 м
[Cb cap Ac cuf Ci]
+17.4 +1.9 35 +17 +17 1003.9 928.0 +19.5 0.0
12 11.06 Ю 3 50 км 3/0
[Ci ing]
+15.5 +0.7 37 +15 +15 1004.6 928.2
15 11.06 штиль 0 50 км 3/0
[Ac lent]
+8.2 +1.3 62 +8 +8 1007.3 928.7
18 11.06 штиль 0 50 км ясно +5.2 +0.3 71 +4 +5 1009.3 929.8
21 11.06 штиль 0 50 км ясно +10.4 +3.0 60 +10 +14 1008.1 930.1 +4.4
00 12.06 Ю 3 50 км ясно +14.8 +0.9 39 +14 +22 1006.0 929.3
03 12.06 ЮВ 3 50 км ясно +18.4 -2.1 25 +19 +29 1003.5 927.8
06 12.06 ЮВ 3 50 км 1/1
[Cu hum]
+20.5 -1.4 23 +21 +27 комфорт 1001.4 926.4
09 12.06 Ю 3 50 км 1/1 1000 м
[Cu hum]
+17.3 -0.8 29 +17 +19 1001.9 926.1 +20.9
12 12.06 Ю 4 50 км ясно +14.2 -0.4 37 +13 +13 1003.7 927.0
15 12.06 штиль 0 50 км ясно +8.4 +2.5 66 +8 +8 1006.7 928.3
18 12.06 С 1 50 км ясно +6.8 +0.8 66 +6 +6 1008.7 929.6
21 12.06 штиль 0 50 км ясно +12.0 +0.5 45 +12 +16 1008.2 930.5 +3.7
00 13.06 Ю 3 50 км ясно +16.6 +4.0 43 +16 +24 1006.7 930.4
03 13.06 ЮЗ 2 50 км 8/8 600 м
[Sc]
+18.0 +2.9 36 +19 +21 1005.6 929.7
06 13.06 ЮЗ 2 50 км 8/8 600 м
[Cb cap Ci ing]
+16.1 +2.6 40 +16 +18 1005.6 929.3
09 13.06 ЮЗ 3 50 км 6/4 600 м
[Cu Sc Ac trans Ci ing]
+17.2 +0.5 32 +17 +18 1005.7 929.3 +19.3
12 13.06 ЮЗ 2 50 км 3/0
[Ac lent Ci fib]
+14.2 +2.2 44 +14 +14 1007.7 930.6
15 13.06 В 2 50 км 8/0
[Ac lent Ci]
+7.1 +2.3 71 +5 +5 1011.2 932.1
18 13.06 штиль 0 50 км 10/0
[Ac trans Ci]
+2.9 +0.5 84 +2 +2 1014.4 933.8
21 13.06 В 1 50 км 10/0
[Ac trans Cs]
+10.2 +1.6 55 +10 +12 1013.2 934.7 +2.0
00 14.06 В 1 50 км 9/0
[Ac trans Cs]
+15.9 +2.6 41 +17 +24 1011.7 934.8
03 14.06 З 1 50 км 8/0
[Ac As Ci sp]
+18.9 +1.8 32 +20 +29 1010.0 934.0
06 14.06 штиль 0 50 км 8/3 1000 м
[Cu hum Ac As Cc]
+20.3 +2.6 31 +20 +26 1008.2 932.7
09 14.06 Ю 1 50 км 9/6 600 м
[Cb cap Ac lent Cc]
+21.2 +2.2 28 +21 +22 комфорт 1007.1 931.9 +21.2
12 14.06 Ю 2 50 км 9/8 600 м
[Cb cap Ac lent]
+15.9 +2.9 42 +16 +16 1009.0 932.4
15 14.06 штиль 0 50 км 8/4 600 м
[Sc diur, vesp Ci fib]
+8.8 +6.2 84 +8 +8 1012.0 933.4
18 14.06 В 2 50 км 8/4 600 м
[Sc Ac trans]
+5.3 +2.9 84 +3 +3 1013.7 933.9
21 14.06 штиль 0 50 км 8/4 600 м
[Cb cap Ac cast Ci ing]
+10.0 +5.4 73 +9 +11 1013.2 934.7 +3.7
00 15.06 ЮЗ 1 50 км 8/6 600 м
[Cu Sc Ac cuf Cc]
+15.7 +5.5 51 +17 +20 1011.5 934.6
03 15.06 З 1 50 км 6/4 600 м
[Cb cap Ac lent Cc]
+18.5 +3.7 37 +20 +27 1009.4 933.4
06 15.06 З 4 50 км 6/4 600 м
[Cb cap Ac cast Ci ing]
+11.9 +3.3 56 +10 +13 1010.4 932.6
09 15.06 В 6 50 км 8/5 600 м
[Cb cap Ac trans Cc]
+19.4 +5.4 40 +20 +20 1008.6 932.9 +19.4
12 15.06 штиль 0
{11}
50 км 3/1 600 м
[Sc Ac trans Ci fib]
+12.3 +7.1 71 +12 +12 1011.6 933.9
15 15.06 СВ 1 50 км 3/0
[Cs]
+6.2 +4.1 86 +5 +5 1013.7 934.2
18 15.06 штиль 0 50 км ясно +6.2 +3.9 85 +5 +6 1014.8 935.2
21 15.06 штиль 0 50 км 4/0
[Ci fib]
+8.4 +5.8 84 +8 +11 1014.5 935.5 +3.9
00 16.06 З 1 50 км 3/3 1000 м
[Cu hum Cs]
+14.6 +9.4 71 +15 +23 1012.9 935.7
03 16.06 З 1 50 км 6/6 600 м
[Cb cap]
+17.3 +7.4 52 +18 +24 1011.3 934.9
06 16.06 ЮЗ 3 50 км 6/6 600 м
[Cb cap]
+20.1 +5.9 39 +21 +24 комфорт 1009.6 934.0

 

Местоположение метеостанции Иэма (Якутия, Россия): широта 65.30 долгота 135.80 высота над уровнем моря 675 м.

В архиве по умолчанию представлена погода в Иэме за последнюю неделю. Архивные данные за месяц целиком и за предыдущие месяцы, начиная с января 2011 года, Вы можете получить, выбрав интересующий диапазон дат из раскрывающегося списка и нажав кнопку "Ввод!".


*Определитесь, кто Вы:
робот инопланетянин человек

Внимание! Время в таблицах - всемирное. Для получения местного времени необходимо прибавить поправку, которая равна 9 ч.

Смотрите также архив погоды в соседних городах и на ближайших метеорологических станциях:

Погода в Томпо (Якутия, Россия) (150 км)
Погода в Усть-Чарках (Якутия, Россия) (171 км)
Погода в Екюччю (Якутия, Россия) (250 км)
Погода в Батагае (Якутия, Россия) (267 км)
Погода в Себян-Кюеле (Якутия, Россия) (269 км)
Погода в Верхоянске (Якутия, Россия) (274 км)
Погода в Крест-Хальджае (Якутия, Россия) (284 км)
Погода в Теплом Ключе (Якутия, Россия) (284 км)
Погода в Верхоянском Перевозе (Якутия, Россия) (286 км)
Погода в Восточной (Якутия, Россия) (294 км)

Пояснения к столбцам:

Ветер - указаны скорость ветра в м/с - средняя за 10 мин, порывы в срок и между сроками (в фигурных скобках) и направление, откуда дует ветер: С - северный, СВ - северо-восточный, В - восточный, ЮВ - юго-восточный, Ю - южный, ЮЗ - юго-западный, З - западный, СЗ - северо-западный.
Видимость - горизонтальная дальность видимости в метрах или километрах. При видимости от 1 до 10 км при отсутствии осадков обычно наблюдается дымка, при ухудшении видимости до 1 км и менее - туман. В сухую погоду видимость может ухудшаться дымом, пылью или мглою.
Явления - указаны атмосферные явления, наблюдавшиеся в срок или в последний час перед сроком; фигурными скобками обозначены явления, наблюдавшиеся между сроками (за 1-3 часа до срока); квадратными скобками обозначены град или гололедные отложения с указанием их диаметра в мм.
Облачность - указаны через наклонную черту общая и нижняя облачность в баллах и высота нижней границы облаков в метрах; квадратными скобками обозначены формы облаков: Ci - перистые, Cs - перисто-слоистые, Cc - перисто-кучевые, Ac - высококучевые, As - высокослоистые, Sc - слоисто-кучевые, Ns - слоисто-дождевые, Cu - кучевые, Cb - кучево-дождевые. Подробнее классификацию облаков см. в Атласе облаков (PDF).
T - Температура воздуха - температура, измеренная на высоте 2 м над землей.
Td - Температура точки росы - температура, при понижении до которой содержащийся в воздухе водяной пар достигнет насыщения.
f - Относительная влажность воздуха - влажноcть воздуха, измеренная на высоте 2 м над землей.
Te - Эффективная температура - температура, которую ощущает одетый по сезону человек в тени. Характеристика душности погоды. При расчете учитывается влияние влажности воздуха и скорости ветра на теплоощущения человека.
Tes - Эффективная температура на солнце - температура, которую ощущает человек, с поправкой на солнечный нагрев. Характеристика знойности погоды. Зависит от высоты солнца над горизонтом, облачности и скорости ветра. Ночью, в пасмурную погоду, а также при ветре 12 м/с и более поправка равна нулю.
P - Атмосферное давление - приведенное к уровню моря атмосферное давление.
Po - Атмосферное давление - измеренное на уровне метеостанции атмосферное давление.
Tmin - Минимальная температура - минимум температуры воздуха на высоте 2 м над землей.
Tmax - Максимальная температура - максимум температуры воздуха на высоте 2 м над землей.
R - Количество осадков - Количество выпавших осадков за период времени, мм. При наведении курсора мыши на число - период времени, за который выпало указанное количество осадков.
R24 - Количество осадков - Количество выпавших осадков за 24 часа, мм.
S - Снежный покров - Высота снежного покрова, см. При наведении курсора мыши на число - состояние снежного покрова и степень покрытия местности в баллах.